User: anonymous   Login
Location: Wien
(48.2082°N, 16.3738°E)
Time: 04:31:53
(UTC+01:00)
Language:

Vanguard 2 Rocket - Orbit

View from above orbital plane
View from above orbital plane
View from above satellite
View from above satellite

Ground track
Ground track

The orbit data is extracted from the following two-line orbital elements,

1 00012U 59001B   24053.42395308  .00001007  00000-0  58119-3 0  9991
2 00012  32.9093 321.0241 1658172 313.3877  33.9779 11.45987339434140
Epoch (UTC): 22 February 2024 10:10:29
Eccentricity: 0.1658172
inclination: 32.9093°
perigee height: 554 km
apogee height: 3310 km
right ascension of ascending node: 321.0241°
argument of perigee: 313.3877°
revolutions per day: 11.45987339
mean anomaly at epoch: 33.9779°
orbit number at epoch: 43414

The dashed part of the orbit path shows where the satellite is in the earth's shadow,  

DLR